SCP
-0 -0 0 0 -0 -0 -0 -0 -0 -0 -0 -0 -0 -0 -0 -0 -0 -0 -0 -0 -0 -0 -0 -0 0 0 0 0 -0 -0 -0 -0 -0 -0 -0 -0 -0 -0 -0 -0 -0 0 -0
-1 -0 -0 0 0 -0 -0 -0 -0 -0 -0 -0 -0 -0 -0 -0 -0 -0 -0 -0 -0 -0 -0 -0 -0 0 0 0 -0 -0 -0 -0 -0 -0 -0 -0 -0 -0 -0 -0 -0 -0 -0
-1 -0 -0 -0 -0 -0 -0 -0 -0 -0 -0 -0 -0 -0 -0 0 0 0 -0 -0 -0 -0 -0 -0 -0 0 0 -0 -0 -0 -0 -0 -0 -0 -0 0 0 0 -0 -0 -0 -0 -0
-1 -0 -0 -0 -0 -0 -0 -0 -0 -0 -0 -0 -0 -0 -0 -0 0 0 0 -0 -0 -0 0 0 0 -0 -0 -0 -0 -0 -0 -0 -0 -0 0 0 -0 0 0 0 -0 -0 -0
-0 -0 -0 -0 -0 -0 -0 -0 -0 -0 -0 -0 -0 -0 -0 0 0 0 0 -0 -0 -0 -0 0 0 -0 -0 -0 -0 -0 -0 -0 -0 0 0 -0 -0 0 0 0 0 0 0
-0 -0 -0 -0 -0 -0 -0 -0 -0 -0 -0 -0 -0 -0 -0 0 0 0 0 -0 -0 -0 -0 0 0 0 0 -0 -0 -0 -0 -0 -0 0 -0 -0 -0 0 0 0 0 0 0
-0 -0 -0 -0 -0 -0 -0 -0 -0 -0 -0 -0 -0 -0 -0 0 0 0 0 0 0 0 0 0 0 0 0 -0 -0 -0 -0 -0 -0 -0 -0 -0 0 0 0 0 0 0 0
0 0 -0 -0 -0 -0 -0 -0 -0 -0 -0 -0 -0 -0 0 0 0 0 0 0 0 0 0 0 0 0 0 -0 -0 -0 -0 -0 -0 0 -0 0 0 0 0 0 0 0 0
0 0 0 0 0 0 0 -0 -0 -0 -0 -0 -0 -0 -0 0 0 0 0 0 0 0 0 0 0 0 0 0 -0 -0 -0 -0 -0 -0 -0 0 0 0 0 0 0 0 0
0 0 0 0 0 0 0 0 0 -0 -0 -0 -0 -0 -0 0 0 0 0 0 0 0 0 0 0 0 0 0 0 0 0 -0 0 -0 0 0 0 0 0 0 0 0 0
0 0 0 0 0 0 0 0 0 0 0 0 0 0 0 0 0 0 0 0 0 0 0 0 0 0 0 0 0 0 0 0 0 0 0 0 0 0 0 0 0 0 1
0 0 0 0 0 0 0 0 0 0 0 0 0 0 0 0 0 0 0 0 0 0 0 0 0 0 0 0 0 0 0 0 0 0 0 0 0 0 0 0 0 0 0
0 0 0 0 0 0 0 0 0 0 0 0 0 0 -0 0 0 0 0 0 0 0 0 0 0 0 0 0 0 0 0 0 0 0 0 1 0 0 0 0 1 1 1
0 0 0 0 0 -0 0 0 0 0 0 0 0 0 -0 0 0 0 0 0 0 0 0 0 0 0 0 0 0 0 0 0 0 0 0 1 0 0 0 1 1 1 1
1 0 0 0 1 0 0 0 0 0 0 0 0 0 0 0 0 0 0 0 0 0 0 0 0 0 0 0 0 0 0 0 0 0 0 1 1 1 1 1 1 2 2
0 1 0 1 1 0 0 0 0 0 0 0 0 0 0 0 1 0 0 0 0 0 0 0 0 0 0 0 0 0 0 0 0 0 0 0 1 1 1 1 1 2 2
1 1 1 0 0 0 0 1 0 0 -0 0 0 1 1 0 1 0 -0 0 0 0 0 0 0 0 0 0 0 0 0 0 0 1 1 1 1 1 1 1 2 2 2
1 2 2 0 1 1 1 1 1 0 0 0 0 1 1 2 3 2 1 1 0 1 0 0 0 0 0 0 1 0 0 1 0 1 1 1 1 1 1 2 3 1 1
2 1 1 1 1 1 1 1 1 1 1 2 1 1 2 1 2 1 1 1 1 1 1 0 0 1 0 0 0 1 1 1 1 0 1 2 3 2 2 2 0 0 1
1 1 1 1 1 1 2 1 2 3 1 1 1 1 1 2 1 1 1 1 1 1 1 2 2 2 2 1 1 1 1 1 1 1 2 2 2 1 1 2 3 1 0
3 3 1 1 2 3 3 2 2 2 1 2 1 2 3 1 1 1 1 2 2 1 2 2 2 2 2 1 1 2 2 2 2 2 1 0 0 0 0 1 2 1 0
2 2 2 2 2 2 2 2 2 2 2 2 3 3 2 1 1 1 1 2 2 2 2 2 2 1 1 2 3 2 2 1 1 1 1 0 0 0 0 0 0 0 0
1 2 2 3 3 2 3 4 4 3 4 2 2 2 1 1 2 2 2 2 2 2 1 2 2 2 2 1 1 2 1 1 1 0 0 0 0 0 0 0 0 0 0
1 2 3 3 3 3 2 2 2 1 2 3 3 3 3 2 2 2 2 2 2 2 2 2 2 2 1 1 2 2 1 1 1 0 0 0 0 0 0 0 0 0 0
2 2 3 4 3 2 2 2 1 1 2 2 3 2 3 2 2 1 1 1 1 1 1 1 1 1 1 1 2 2 2 2 1 1 0 0 0 0 1 0 0 0 0
1 1 1 2 2 2 2 2 2 2 2 2 2 1 2 1 1 1 0 1 0 0 0 0 0 0 1 1 1 1 1 1 2 2 2 2 1 0 1 0 1 0 0
Wind_Speed_500mb
36 54 51 46 44 40 39 42 42 39 35 33 31 29 27 28 28 30 29 29 28 27 24 20 17 12 16 17 14 14 16 16 15 15 14 15 17 19 18 22 26 8 4
44 56 51 48 45 41 39 41 43 41 37 35 30 28 28 29 30 30 28 26 24 23 20 17 16 11 12 14 12 12 14 14 13 13 13 15 11 12 14 16 16 15 6
44 56 52 49 46 42 40 42 45 43 39 35 31 28 28 31 33 31 25 22 22 21 17 15 13 11 12 13 12 12 13 13 13 14 16 20 6 3 6 11 12 9 6
44 54 53 50 46 41 39 43 46 45 40 36 31 26 26 29 32 30 24 21 20 18 15 14 13 14 15 15 14 14 13 13 14 18 20 8 5 8 2 5 8 8 6
43 51 52 49 44 39 38 44 48 46 41 36 30 25 24 29 33 30 24 20 19 17 16 14 16 17 18 18 18 15 12 11 13 18 14 5 6 18 11 6 6 7 5
40 45 51 48 43 39 38 42 47 46 41 36 30 24 24 29 34 29 25 21 20 20 18 16 17 20 21 21 17 13 10 8 9 11 8 13 13 24 18 11 7 5 5
41 40 52 47 43 40 42 46 45 43 39 35 30 26 25 29 33 30 25 23 22 21 19 17 18 20 21 18 16 14 13 12 9 10 13 13 14 24 17 14 12 11 9
41 40 53 47 42 40 41 43 41 39 36 33 29 26 27 29 32 29 25 22 20 20 19 18 17 19 20 19 17 16 16 16 9 12 16 15 27 25 20 19 17 16 14
39 38 50 49 46 43 40 38 36 35 33 32 30 27 27 28 32 30 25 21 19 18 18 19 19 20 20 22 22 22 22 21 21 18 18 19 31 34 26 25 26 25 22
39 38 41 47 48 46 43 39 34 30 28 28 26 25 25 28 31 29 26 21 18 17 16 18 21 23 25 27 28 29 29 29 30 27 29 26 39 42 37 35 33 32 32
40 40 41 42 42 40 40 43 38 34 31 29 28 29 29 31 33 32 28 26 22 21 21 23 25 26 28 30 31 31 33 34 27 28 26 39 42 49 40 38 39 39 38
45 43 43 42 42 40 35 42 42 37 33 32 31 31 29 25 27 24 28 29 27 27 27 28 28 30 32 32 30 29 35 32 28 32 33 43 53 47 41 40 40 41 40
47 45 46 44 42 40 35 34 31 29 28 29 28 30 28 22 23 25 24 30 34 32 31 31 36 38 34 27 26 33 26 30 32 34 35 46 56 47 44 44 40 40 40
49 48 47 46 46 45 35 30 31 29 28 27 28 30 26 23 23 23 22 19 23 23 24 26 27 29 28 33 36 36 38 38 35 36 36 48 57 51 51 52 48 45 45
52 51 49 48 48 49 41 32 33 31 29 25 26 28 26 23 22 20 21 22 22 21 25 25 29 34 36 38 38 38 41 43 43 41 41 45 55 55 52 56 57 54 53
51 52 51 48 50 48 45 36 34 32 29 28 26 27 32 26 26 24 23 24 23 24 25 25 27 32 37 38 41 42 43 44 44 45 45 42 48 58 53 55 57 60 59
53 49 48 47 46 45 45 38 34 29 29 28 28 32 33 34 28 25 25 24 24 25 28 28 27 31 36 39 41 42 43 44 43 46 42 44 42 49 53 62 55 55 58
51 49 50 46 47 55 55 46 41 31 29 27 28 29 34 30 33 31 26 25 25 24 27 27 25 29 33 38 42 42 42 42 44 47 47 51 51 51 55 49 55 53 57
51 49 50 48 44 42 41 37 38 32 31 31 27 28 22 31 27 31 25 26 33 27 28 25 26 29 35 41 44 44 46 46 46 52 53 52 56 53 49 58 66 67 57
52 46 45 44 42 41 38 39 36 37 33 28 27 25 23 27 23 25 25 30 29 26 28 32 35 37 40 42 48 49 53 50 59 61 70 54 46 53 67 64 74 82 76
51 44 46 45 43 45 48 42 35 35 28 26 23 23 30 26 20 27 24 29 31 32 34 38 40 43 46 45 51 54 53 62 63 66 68 38 52 54 59 63 76 74 68
47 50 48 43 41 38 38 33 30 30 26 27 28 29 21 20 24 26 21 22 27 32 34 37 38 39 44 46 52 57 52 49 54 55 56 49 51 48 51 61 68 75 72
49 53 52 47 42 39 32 37 31 28 27 23 18 23 22 19 22 26 28 29 29 30 23 33 31 35 43 44 42 46 32 19 33 33 37 51 49 46 41 51 55 66 70
46 50 46 46 44 42 41 34 33 25 24 22 23 19 18 22 13 10 18 16 20 21 25 28 34 34 30 33 32 34 34 38 27 38 37 52 49 50 55 52 48 39 48
44 46 45 47 43 52 38 28 26 24 23 21 19 18 24 9 9 9 13 21 24 13 26 32 37 32 39 38 37 39 43 51 44 44 45 42 47 44 45 40 52 39 30
40 40 39 40 37 36 32 29 25 31 24 21 18 13 12 8 3 9 11 10 15 14 21 24 30 28 31 28 28 34 39 47 46 47 50 52 54 61 58 57 49 48 53
Wind_Direction_500mb
155 163 160 158 157 158 162 168 169 168 164 159 150 145 138 139 144 144 143 146 150 153 156 155 155 140 145 146 138 138 141 140 138 135 125 120 117 116 115 111 93 38 67
160 165 163 160 160 162 167 173 175 173 169 163 155 148 142 143 149 147 145 152 159 163 170 173 168 165 157 157 154 148 141 142 138 126 117 99 97 107 120 130 129 166 127
159 164 163 163 164 165 169 179 180 177 174 169 162 154 149 150 153 151 150 156 160 162 167 172 173 177 172 167 158 152 142 141 129 113 99 76 353 52 119 126 125 122 111
160 164 166 166 166 167 171 181 182 181 178 175 168 160 154 155 158 158 160 159 160 164 172 175 171 167 165 161 155 144 138 134 121 105 69 66 262 307 167 153 136 129 123
160 164 169 167 167 167 170 180 184 183 182 179 174 168 163 164 166 168 168 166 162 161 159 163 158 160 160 157 151 145 142 134 120 92 65 266 187 282 298 245 195 170 186
162 164 168 168 167 168 167 177 184 184 184 183 181 180 174 173 174 174 173 172 168 164 161 161 154 158 156 153 160 168 169 163 142 25 279 273 249 263 266 270 264 257 247
162 170 170 169 168 169 172 178 182 186 188 189 190 189 185 181 181 180 180 180 178 174 172 172 172 166 170 178 184 193 197 196 188 283 259 276 262 274 270 269 271 270 270
165 171 172 170 170 169 171 177 182 188 193 197 200 198 192 187 188 187 188 186 186 186 189 192 192 191 195 203 213 221 224 224 216 275 269 259 264 272 268 271 273 275 278
169 169 173 171 173 171 171 174 180 188 196 200 202 199 196 196 193 195 197 195 198 200 204 213 218 217 221 231 239 243 246 251 257 262 262 273 265 273 273 275 273 269 266
171 172 170 172 173 174 173 174 177 180 185 193 194 196 198 199 199 202 208 211 214 219 225 232 237 240 243 248 253 258 263 266 270 273 271 269 267 271 274 269 274 271 264
175 177 174 174 174 172 178 178 177 179 180 185 190 192 192 198 200 208 213 220 226 233 241 246 251 254 256 258 261 265 268 269 264 266 266 264 264 272 275 272 272 269 263
179 180 179 179 178 174 179 184 182 182 183 186 191 192 192 192 210 212 228 229 230 239 246 252 259 262 260 262 270 276 272 266 257 259 261 264 265 272 271 272 272 266 261
183 182 182 180 182 179 182 186 180 186 186 189 192 202 182 200 217 205 229 245 237 241 249 255 261 260 261 253 252 261 260 249 254 257 258 263 270 273 270 273 273 263 257
186 185 184 183 185 181 186 190 187 191 193 193 198 211 182 197 216 215 222 246 255 242 263 241 261 271 259 254 252 255 260 259 258 261 265 267 273 276 270 267 265 264 259
189 188 187 186 188 185 187 191 190 195 199 202 205 214 197 211 220 224 227 230 242 250 248 258 256 259 263 262 259 260 264 267 267 263 264 268 273 282 274 266 267 265 262
192 188 188 188 192 188 187 193 194 198 203 201 207 213 208 215 221 227 235 241 239 249 253 255 264 264 267 267 264 266 265 263 268 272 272 274 281 284 288 274 271 270 267
192 190 189 188 192 192 193 194 196 206 203 207 208 210 214 218 220 230 240 252 257 258 258 262 266 271 272 271 270 270 267 271 272 274 276 278 281 284 286 290 282 271 264
189 188 188 188 196 198 200 198 201 203 209 213 213 217 226 228 226 241 235 251 262 261 266 268 268 274 274 276 274 271 270 271 270 275 276 276 275 281 281 283 269 267 271
187 189 189 190 195 202 197 200 203 211 205 212 214 219 228 233 221 230 238 247 256 263 273 278 282 281 280 275 275 274 274 273 271 278 278 273 275 280 277 273 275 274 269
188 187 187 190 191 194 198 196 207 208 203 212 215 227 218 225 227 237 242 251 267 273 274 262 266 265 267 274 277 277 274 273 278 279 275 263 266 277 279 275 274 271 264
181 186 184 184 191 195 197 197 200 205 197 210 213 212 227 240 230 240 243 250 259 284 284 281 280 281 279 274 280 280 274 275 281 281 291 296 289 282 280 285 273 267 272
181 188 183 185 184 184 194 187 197 200 196 197 209 214 212 210 218 234 255 262 280 286 289 283 287 289 292 291 282 284 286 282 278 276 281 283 302 303 308 301 283 269 272
189 191 188 187 186 178 189 181 173 175 180 185 205 213 199 201 225 243 255 270 275 283 299 281 288 284 291 294 292 277 285 280 303 296 282 295 304 314 320 323 306 281 265
187 192 191 184 185 170 182 176 174 177 187 186 193 193 191 220 226 245 267 284 288 288 282 280 286 287 290 296 293 282 278 274 287 297 296 301 316 307 310 316 317 319 286
175 179 179 182 178 174 163 171 173 172 190 159 161 174 191 221 216 248 271 278 281 291 284 285 289 299 290 283 282 284 283 285 283 275 287 287 292 293 305 297 300 298 276
167 165 164 166 164 165 163 172 164 176 160 166 162 148 155 152 261 253 279 294 306 307 308 314 310 314 303 301 300 298 294 284 283 280 282 283 289 293 287 283 295 281 269
Wind_Speed_850mb
36 54 51 46 44 40 39 42 42 39 35 33 31 29 27 28 28 30 29 29 28 27 24 20 17 12 16 17 14 14 16 16 15 15 14 15 17 19 18 22 26 8 4
44 56 51 48 45 41 39 41 43 41 37 35 30 28 28 29 30 30 28 26 24 23 20 17 16 11 12 14 12 12 14 14 13 13 13 15 11 12 14 16 16 15 6
44 56 52 49 46 42 40 42 45 43 39 35 31 28 28 31 33 31 25 22 22 21 17 15 13 11 12 13 12 12 13 13 13 14 16 20 6 3 6 11 12 9 6
44 54 53 50 46 41 39 43 46 45 40 36 31 26 26 29 32 30 24 21 20 18 15 14 13 14 15 15 14 14 13 13 14 18 20 8 5 8 2 5 8 8 6
43 51 52 49 44 39 38 44 48 46 41 36 30 25 24 29 33 30 24 20 19 17 16 14 16 17 18 18 18 15 12 11 13 18 14 5 6 18 11 6 6 7 5
40 45 51 48 43 39 38 42 47 46 41 36 30 24 24 29 34 29 25 21 20 20 18 16 17 20 21 21 17 13 10 8 9 11 8 13 13 24 18 11 7 5 5
41 40 52 47 43 40 42 46 45 43 39 35 30 26 25 29 33 30 25 23 22 21 19 17 18 20 21 18 16 14 13 12 9 10 13 13 14 24 17 14 12 11 9
41 40 53 47 42 40 41 43 41 39 36 33 29 26 27 29 32 29 25 22 20 20 19 18 17 19 20 19 17 16 16 16 9 12 16 15 27 25 20 19 17 16 14
39 38 50 49 46 43 40 38 36 35 33 32 30 27 27 28 32 30 25 21 19 18 18 19 19 20 20 22 22 22 22 21 21 18 18 19 31 34 26 25 26 25 22
39 38 41 47 48 46 43 39 34 30 28 28 26 25 25 28 31 29 26 21 18 17 16 18 21 23 25 27 28 29 29 29 30 27 29 26 39 42 37 35 33 32 32
40 40 41 42 42 40 40 43 38 34 31 29 28 29 29 31 33 32 28 26 22 21 21 23 25 26 28 30 31 31 33 34 27 28 26 39 42 49 40 38 39 39 38
45 43 43 42 42 40 35 42 42 37 33 32 31 31 29 25 27 24 28 29 27 27 27 28 28 30 32 32 30 29 35 32 28 32 33 43 53 47 41 40 40 41 40
47 45 46 44 42 40 35 34 31 29 28 29 28 30 28 22 23 25 24 30 34 32 31 31 36 38 34 27 26 33 26 30 32 34 35 46 56 47 44 44 40 40 40
49 48 47 46 46 45 35 30 31 29 28 27 28 30 26 23 23 23 22 19 23 23 24 26 27 29 28 33 36 36 38 38 35 36 36 48 57 51 51 52 48 45 45
52 51 49 48 48 49 41 32 33 31 29 25 26 28 26 23 22 20 21 22 22 21 25 25 29 34 36 38 38 38 41 43 43 41 41 45 55 55 52 56 57 54 53
51 52 51 48 50 48 45 36 34 32 29 28 26 27 32 26 26 24 23 24 23 24 25 25 27 32 37 38 41 42 43 44 44 45 45 42 48 58 53 55 57 60 59
53 49 48 47 46 45 45 38 34 29 29 28 28 32 33 34 28 25 25 24 24 25 28 28 27 31 36 39 41 42 43 44 43 46 42 44 42 49 53 62 55 55 58
51 49 50 46 47 55 55 46 41 31 29 27 28 29 34 30 33 31 26 25 25 24 27 27 25 29 33 38 42 42 42 42 44 47 47 51 51 51 55 49 55 53 57
51 49 50 48 44 42 41 37 38 32 31 31 27 28 22 31 27 31 25 26 33 27 28 25 26 29 35 41 44 44 46 46 46 52 53 52 56 53 49 58 66 67 57
52 46 45 44 42 41 38 39 36 37 33 28 27 25 23 27 23 25 25 30 29 26 28 32 35 37 40 42 48 49 53 50 59 61 70 54 46 53 67 64 74 82 76
51 44 46 45 43 45 48 42 35 35 28 26 23 23 30 26 20 27 24 29 31 32 34 38 40 43 46 45 51 54 53 62 63 66 68 38 52 54 59 63 76 74 68
47 50 48 43 41 38 38 33 30 30 26 27 28 29 21 20 24 26 21 22 27 32 34 37 38 39 44 46 52 57 52 49 54 55 56 49 51 48 51 61 68 75 72
49 53 52 47 42 39 32 37 31 28 27 23 18 23 22 19 22 26 28 29 29 30 23 33 31 35 43 44 42 46 32 19 33 33 37 51 49 46 41 51 55 66 70
46 50 46 46 44 42 41 34 33 25 24 22 23 19 18 22 13 10 18 16 20 21 25 28 34 34 30 33 32 34 34 38 27 38 37 52 49 50 55 52 48 39 48
44 46 45 47 43 52 38 28 26 24 23 21 19 18 24 9 9 9 13 21 24 13 26 32 37 32 39 38 37 39 43 51 44 44 45 42 47 44 45 40 52 39 30
40 40 39 40 37 36 32 29 25 31 24 21 18 13 12 8 3 9 11 10 15 14 21 24 30 28 31 28 28 34 39 47 46 47 50 52 54 61 58 57 49 48 53
Wind_Direction_850mb
155 163 160 158 157 158 162 168 169 168 164 159 150 145 138 139 144 144 143 146 150 153 156 155 155 140 145 146 138 138 141 140 138 135 125 120 117 116 115 111 93 38 67
160 165 163 160 160 162 167 173 175 173 169 163 155 148 142 143 149 147 145 152 159 163 170 173 168 165 157 157 154 148 141 142 138 126 117 99 97 107 120 130 129 166 127
159 164 163 163 164 165 169 179 180 177 174 169 162 154 149 150 153 151 150 156 160 162 167 172 173 177 172 167 158 152 142 141 129 113 99 76 353 52 119 126 125 122 111
160 164 166 166 166 167 171 181 182 181 178 175 168 160 154 155 158 158 160 159 160 164 172 175 171 167 165 161 155 144 138 134 121 105 69 66 262 307 167 153 136 129 123
160 164 169 167 167 167 170 180 184 183 182 179 174 168 163 164 166 168 168 166 162 161 159 163 158 160 160 157 151 145 142 134 120 92 65 266 187 282 298 245 195 170 186
162 164 168 168 167 168 167 177 184 184 184 183 181 180 174 173 174 174 173 172 168 164 161 161 154 158 156 153 160 168 169 163 142 25 279 273 249 263 266 270 264 257 247
162 170 170 169 168 169 172 178 182 186 188 189 190 189 185 181 181 180 180 180 178 174 172 172 172 166 170 178 184 193 197 196 188 283 259 276 262 274 270 269 271 270 270
165 171 172 170 170 169 171 177 182 188 193 197 200 198 192 187 188 187 188 186 186 186 189 192 192 191 195 203 213 221 224 224 216 275 269 259 264 272 268 271 273 275 278
169 169 173 171 173 171 171 174 180 188 196 200 202 199 196 196 193 195 197 195 198 200 204 213 218 217 221 231 239 243 246 251 257 262 262 273 265 273 273 275 273 269 266
171 172 170 172 173 174 173 174 177 180 185 193 194 196 198 199 199 202 208 211 214 219 225 232 237 240 243 248 253 258 263 266 270 273 271 269 267 271 274 269 274 271 264
175 177 174 174 174 172 178 178 177 179 180 185 190 192 192 198 200 208 213 220 226 233 241 246 251 254 256 258 261 265 268 269 264 266 266 264 264 272 275 272 272 269 263
179 180 179 179 178 174 179 184 182 182 183 186 191 192 192 192 210 212 228 229 230 239 246 252 259 262 260 262 270 276 272 266 257 259 261 264 265 272 271 272 272 266 261
183 182 182 180 182 179 182 186 180 186 186 189 192 202 182 200 217 205 229 245 237 241 249 255 261 260 261 253 252 261 260 249 254 257 258 263 270 273 270 273 273 263 257
186 185 184 183 185 181 186 190 187 191 193 193 198 211 182 197 216 215 222 246 255 242 263 241 261 271 259 254 252 255 260 259 258 261 265 267 273 276 270 267 265 264 259
189 188 187 186 188 185 187 191 190 195 199 202 205 214 197 211 220 224 227 230 242 250 248 258 256 259 263 262 259 260 264 267 267 263 264 268 273 282 274 266 267 265 262
192 188 188 188 192 188 187 193 194 198 203 201 207 213 208 215 221 227 235 241 239 249 253 255 264 264 267 267 264 266 265 263 268 272 272 274 281 284 288 274 271 270 267
192 190 189 188 192 192 193 194 196 206 203 207 208 210 214 218 220 230 240 252 257 258 258 262 266 271 272 271 270 270 267 271 272 274 276 278 281 284 286 290 282 271 264
189 188 188 188 196 198 200 198 201 203 209 213 213 217 226 228 226 241 235 251 262 261 266 268 268 274 274 276 274 271 270 271 270 275 276 276 275 281 281 283 269 267 271
187 189 189 190 195 202 197 200 203 211 205 212 214 219 228 233 221 230 238 247 256 263 273 278 282 281 280 275 275 274 274 273 271 278 278 273 275 280 277 273 275 274 269
188 187 187 190 191 194 198 196 207 208 203 212 215 227 218 225 227 237 242 251 267 273 274 262 266 265 267 274 277 277 274 273 278 279 275 263 266 277 279 275 274 271 264
181 186 184 184 191 195 197 197 200 205 197 210 213 212 227 240 230 240 243 250 259 284 284 281 280 281 279 274 280 280 274 275 281 281 291 296 289 282 280 285 273 267 272
181 188 183 185 184 184 194 187 197 200 196 197 209 214 212 210 218 234 255 262 280 286 289 283 287 289 292 291 282 284 286 282 278 276 281 283 302 303 308 301 283 269 272
189 191 188 187 186 178 189 181 173 175 180 185 205 213 199 201 225 243 255 270 275 283 299 281 288 284 291 294 292 277 285 280 303 296 282 295 304 314 320 323 306 281 265
187 192 191 184 185 170 182 176 174 177 187 186 193 193 191 220 226 245 267 284 288 288 282 280 286 287 290 296 293 282 278 274 287 297 296 301 316 307 310 316 317 319 286
175 179 179 182 178 174 163 171 173 172 190 159 161 174 191 221 216 248 271 278 281 291 284 285 289 299 290 283 282 284 283 285 283 275 287 287 292 293 305 297 300 298 276
167 165 164 166 164 165 163 172 164 176 160 166 162 148 155 152 261 253 279 294 306 307 308 314 310 314 303 301 300 298 294 284 283 280 282 283 289 293 287 283 295 281 269